Scottsdale, AZ

7:34 AM MST on August 23, 2017 (GMT -0700)
Scottsdale

Weather History for KSDL - June, 2013

Change the Weather History Date:

Friday, June 14, 2013

  Actual Average Record
Temperature  
Mean Temperature 90 °F -  
Max Temperature 100 °F 98 °F 107 °F (2000)
Min Temperature 81 °F 73 °F 35 °F (1997)
Cooling Degree Days 26    
Growing Degree Days 40 (Base 50)    
Moisture  
Dew Point 45 °F    
Average Humidity 21    
Maximum Humidity 38    
Minimum Humidity 11    
Precipitation  
Precipitation 0.00 in - - ()
Sea Level Pressure  
Sea Level Pressure 29.73 in    
Wind  
Wind Speed 3 mph (WSW)    
Max Wind Speed 10 mph    
Max Gust Speed -    
Visibility 10 miles    
Events      
Averages and records for this station are not official NWS values.
T = Trace of Precipitation, MM = Missing Value Source: NWS Daily Summary

Daily Weather History Graph

Daily Weather History Graph

Search for Another Location

Airport or City:

Trip Planner

Search our weather history database for the weather conditions in past years. The results will help you decide how hot, cold, wet, or windy it might be!

Date:

Astronomy

Jun. 14, 2013 Rise Set
Actual Time 5:16 AM MST 7:39 PM MST
Civil Twilight 4:47 AM MST 8:08 PM MST
Nautical Twilight 4:12 AM MST 8:43 PM MST
Astronomical Twilight 3:33 AM MST 9:22 PM MST
Moon 10:41 AM MST (6/14) 11:32 PM MST (6/14)
Length of Visible Light 15h 20m
Length of Day
14h 22m
Waxing Crescent, 31% of the Moon is Illuminated
Jun 14
Waxing Crescent
Jun 16
First Quarter
Jun 23
Full
Jun 29
Last Quarter
Jul 8
New

Hourly Weather History & Observations

Time (MST) Temp. Heat Index Dew Point Humidity Pressure Visibility Wind Dir Wind Speed Gust Speed Precip Events Conditions
12:53 AM 88.0 °F - 50.0 °F 27% 29.74 in 10.0 mi North 3.5 mph - N/A   Clear
1:53 AM 87.1 °F - 48.9 °F 27% 29.73 in 10.0 mi North 3.5 mph - N/A   Clear
2:53 AM 84.9 °F - 50.0 °F 30% 29.74 in 10.0 mi Calm Calm - N/A   Clear
3:53 AM 84.0 °F - 51.1 °F 32% 29.74 in 10.0 mi Calm Calm - N/A   Clear
4:53 AM 82.9 °F - 51.1 °F 33% 29.75 in 10.0 mi Calm Calm - N/A   Clear
5:53 AM 81.0 °F 80.4 °F 53.1 °F 38% 29.77 in 10.0 mi Calm Calm - N/A   Clear
6:53 AM 82.0 °F 81.2 °F 53.1 °F 37% 29.79 in 10.0 mi Calm Calm - N/A   Clear
7:53 AM 86.0 °F - 50.0 °F 29% 29.80 in 10.0 mi Calm Calm - N/A   Clear
8:53 AM 90.0 °F - 46.9 °F 23% 29.81 in 10.0 mi WSW 6.9 mph - N/A   Clear
9:53 AM 91.9 °F - 45.0 °F 20% 29.80 in 10.0 mi Variable 6.9 mph - N/A   Clear
10:53 AM 93.0 °F - 45.0 °F 19% 29.79 in 10.0 mi Calm Calm - N/A   Clear
11:53 AM 95.0 °F - 45.0 °F 18% 29.78 in 10.0 mi SSW 9.2 mph - N/A   Clear
12:53 PM 97.0 °F - 45.0 °F 17% 29.75 in 10.0 mi South 5.8 mph - N/A   Clear
1:53 PM 98.1 °F - 41.0 °F 14% 29.73 in 10.0 mi SSW 6.9 mph - N/A   Clear
2:53 PM 99.0 °F - 39.9 °F 13% 29.71 in 10.0 mi Variable 3.5 mph - N/A   Clear
3:53 PM 100.9 °F - 39.0 °F 12% 29.68 in 10.0 mi WSW 10.4 mph - N/A   Clear
4:53 PM 100.9 °F - 37.9 °F 11% 29.65 in 10.0 mi West 5.8 mph - N/A   Clear
5:53 PM 100.9 °F - 37.9 °F 11% 29.64 in 10.0 mi WSW 8.1 mph - N/A   Clear
6:53 PM 100.0 °F - 39.9 °F 13% 29.64 in 10.0 mi WSW 3.5 mph - N/A   Clear
7:53 PM 98.1 °F - 39.9 °F 13% 29.65 in 10.0 mi SW 3.5 mph - N/A   Clear
8:53 PM 95.0 °F - 41.0 °F 15% 29.66 in 10.0 mi Calm Calm - N/A   Clear
9:53 PM 93.0 °F - 42.1 °F 17% 29.68 in 10.0 mi Calm Calm - N/A   Clear
10:53 PM 91.9 °F - 42.1 °F 18% 29.70 in 10.0 mi West 3.5 mph - N/A   Clear
11:53 PM 91.0 °F - 42.1 °F 18% 29.70 in 10.0 mi Calm Calm - N/A   Clear